Location: St. Louis
(38.6270°N, 90.1994°W)
Time: 11:06:53
(UTC-06:00)

S-56A Canister/Altair - Pass Details

Date: 06 December 2021
Orbit: 634 x 2499 km, 38.9° (Epoch: 26 January)

Event Time Altitude Azimuth Distance (km) Brightness Sun altitude
Rises 23:53:34 0° 250° (WSW) 5,480 - -73.9°
Reaches altitude 10° 23:57:36 10° 249° (WSW) 4,212 - -73.8°
Maximum altitude 00:08:14 79° 166° (SSE) 1,359 - -73.5°
Drops below altitude 10° 00:15:04 10° 81° (E) 2,789 - -73.1°
Sets 00:17:15 0° 80° (E) 3,559 - -73.0°
